Location: ?????
(55.6500°N, 37.2500°E)
Time: 13:47:07
(UTC+00:00)

Cosmos 2061 Rocket - Pass Details

Date: 19 May 2025
Orbit: 965 x 1012 km, 82.9° (Epoch: 21 June)

Event Time Altitude Azimuth Distance (km) Brightness Sun altitude
Rises 22:03:43 0° 348° (NNW) 3,761 8.5 -14.0°
Reaches altitude 10° 22:06:19 10° 352° (N) 2,805 7.6 -13.9°
Maximum altitude 22:12:44 65° 74° (ENE) 1,103 4.4 -13.8°
Enters shadow 22:18:51 11° 156° (SSE) 2,692 5.8 -13.6°
